Pawtucket, RI

1:04 PM EDT on June 23, 2017 (GMT -0400)
North Central State

Weather History for KSFZ - January, 2013

Change the Weather History Date:

Tuesday, January 22, 2013

  Actual Average Record
Temperature  
Mean Temperature 16 °F -  
Max Temperature 21 °F 30 °F 48 °F (1997)
Min Temperature 12 °F 16 °F -7 °F (2005)
Degree Days  
Heating Degree Days 48    
Moisture  
Dew Point 4 °F    
Average Humidity 57    
Maximum Humidity 86    
Minimum Humidity 33    
Precipitation  
Precipitation 0.00 in - - ()
Sea Level Pressure  
Sea Level Pressure 29.86 in    
Wind  
Wind Speed 8 mph (WNW)    
Max Wind Speed 18 mph    
Max Gust Speed 28 mph    
Visibility 10 miles    
Events      
Averages and records for this station are not official NWS values.
T = Trace of Precipitation, MM = Missing Value Source: NWS Daily Summary

Daily Weather History Graph

Daily Weather History Graph

Search for Another Location

Airport or City:

Trip Planner

Search our weather history database for the weather conditions in past years. The results will help you decide how hot, cold, wet, or windy it might be!

Date:

Astronomy

Jan. 22, 2013 Rise Set
Actual Time 7:07 AM EST 4:48 PM EST
Civil Twilight 6:36 AM EST 5:18 PM EST
Nautical Twilight 6:02 AM EST 5:52 PM EST
Astronomical Twilight 5:29 AM EST 6:26 PM EST
Moon 1:08 PM EST (1/22) 3:26 AM EST (1/22)
Length of Visible Light 10h 42m
Length of Day
9h 41m
Waxing Gibbous, 82% of the Moon is Illuminated
Jan 22
Waxing Gibbous
Jan 26
Full
Feb 3
Last Quarter
Feb 10
New
Feb 17
First Quarter

Hourly Weather History & Observations

Time (EST) Temp. Windchill Dew Point Humidity Pressure Visibility Wind Dir Wind Speed Gust Speed Precip Events Conditions
12:15 AM 21.2 °F 14.9 °F 17.6 °F 86% 29.73 in 10.0 mi NNE 4.6 mph - N/A   Mostly Cloudy
12:35 AM 21.2 °F 16.4 °F 17.6 °F 86% 29.72 in 10.0 mi North 3.5 mph - N/A   Mostly Cloudy
12:55 AM 21.2 °F - 17.6 °F 86% 29.73 in 10.0 mi Calm Calm - N/A   Mostly Cloudy
1:15 AM 21.2 °F 16.4 °F 17.6 °F 86% 29.74 in 10.0 mi West 3.5 mph - N/A   Mostly Cloudy
1:35 AM 21.2 °F 16.4 °F 17.6 °F 86% 29.73 in 10.0 mi NW 3.5 mph - N/A   Mostly Cloudy
1:55 AM 21.2 °F - 17.6 °F 86% 29.74 in 10.0 mi Calm Calm - N/A   Overcast
2:15 AM 21.2 °F 16.4 °F 17.6 °F 86% 29.74 in 10.0 mi WNW 3.5 mph - N/A   Overcast
2:35 AM 21.2 °F 14.9 °F 17.6 °F 86% 29.74 in 10.0 mi NW 4.6 mph - N/A   Overcast
2:55 AM 21.2 °F 11.7 °F 17.6 °F 86% 29.74 in 10.0 mi NNW 8.1 mph - N/A   Overcast
3:15 AM 21.2 °F 14.9 °F 17.6 °F 86% 29.73 in 10.0 mi NNW 4.6 mph - N/A   Overcast
3:35 AM 19.4 °F 12.8 °F 15.8 °F 86% 29.74 in 7.0 mi WNW 4.6 mph - N/A   Scattered Clouds
3:55 AM 21.2 °F 14.9 °F 17.6 °F 86% 29.73 in 10.0 mi WNW 4.6 mph - N/A   Mostly Cloudy
4:15 AM 19.4 °F - 15.8 °F 86% 29.73 in 10.0 mi Calm Calm - N/A   Mostly Cloudy
4:35 AM 19.4 °F 14.3 °F 15.8 °F 86% 29.73 in 10.0 mi West 3.5 mph - N/A   Mostly Cloudy
4:55 AM 19.4 °F 12.8 °F 15.8 °F 86% 29.73 in 2.5 mi West 4.6 mph - N/A   Mostly Cloudy
5:15 AM 21.2 °F 10.9 °F 17.6 °F 86% 29.74 in 0.8 mi West 9.2 mph 16.1 mph N/A   Overcast
5:35 AM 21.2 °F 12.6 °F 15.8 °F 80% 29.75 in 2.0 mi West 6.9 mph - N/A   Overcast
6:15 AM 21.2 °F 10.1 °F 12.2 °F 68% 29.76 in 10.0 mi WNW 10.4 mph 17.3 mph N/A   Scattered Clouds
6:35 AM 19.4 °F 4.1 °F 14.0 °F 80% 29.77 in 10.0 mi WNW 18.4 mph 24.2 mph N/A   Partly Cloudy
6:55 AM 19.4 °F 6.0 °F 10.4 °F 68% 29.78 in 10.0 mi West 13.8 mph 18.4 mph N/A   Partly Cloudy
7:35 AM 17.6 °F 4.3 °F 8.6 °F 68% 29.80 in 9.0 mi West 12.7 mph 23.0 mph N/A   Clear
7:55 AM 17.6 °F 3.2 °F 8.6 °F 68% 29.80 in 10.0 mi WNW 15.0 mph 20.7 mph N/A   Clear
8:15 AM 17.6 °F 3.7 °F 6.8 °F 63% 29.81 in 9.0 mi WNW 13.8 mph 21.9 mph N/A   Clear
8:35 AM 17.6 °F 2.2 °F 6.8 °F 63% 29.82 in 9.0 mi WNW 17.3 mph 21.9 mph N/A   Clear
8:55 AM 19.4 °F 4.1 °F 6.8 °F 58% 29.83 in 8.0 mi WNW 18.4 mph 25.3 mph N/A   Clear
9:15 AM 19.4 °F 6.6 °F 6.8 °F 58% 29.83 in 9.0 mi West 12.7 mph 27.6 mph N/A   Clear
9:35 AM 19.4 °F 6.6 °F 5.0 °F 54% 29.84 in 10.0 mi West 12.7 mph 23.0 mph N/A   Clear
10:15 AM 19.4 °F 4.5 °F 1.4 °F 46% 29.86 in 10.0 mi WNW 17.3 mph 27.6 mph N/A   Clear
10:35 AM 19.4 °F 4.1 °F -0.4 °F 42% 29.86 in 10.0 mi WNW 18.4 mph 26.5 mph N/A   Clear
10:55 AM 21.2 °F 7.8 °F -0.4 °F 39% 29.85 in 10.0 mi WNW 15.0 mph 24.2 mph N/A   Clear
11:15 AM 21.2 °F 8.3 °F -0.4 °F 39% 29.85 in 10.0 mi WNW 13.8 mph 24.2 mph N/A   Clear
11:35 AM 21.2 °F 8.9 °F -0.4 °F 39% 29.84 in 10.0 mi West 12.7 mph 16.1 mph N/A   Clear
11:55 AM 21.2 °F 7.8 °F -0.4 °F 39% 29.84 in 10.0 mi West 15.0 mph 26.5 mph N/A   Clear
12:15 PM 21.2 °F 7.8 °F -0.4 °F 39% 29.84 in 10.0 mi WNW 15.0 mph 26.5 mph N/A   Clear
12:35 PM 21.2 °F 8.3 °F -0.4 °F 39% 29.84 in 10.0 mi NW 13.8 mph 21.9 mph N/A   Clear
1:15 PM 21.2 °F 9.5 °F -2.2 °F 36% 29.84 in 10.0 mi NW 11.5 mph 25.3 mph N/A   Clear
1:35 PM 21.2 °F 7.3 °F -2.2 °F 36% 29.84 in 10.0 mi WNW 16.1 mph 23.0 mph N/A   Clear
1:55 PM 21.2 °F 8.9 °F -2.2 °F 36% 29.85 in 10.0 mi West 12.7 mph 20.7 mph N/A   Clear
2:15 PM 21.2 °F 7.3 °F -2.2 °F 36% 29.85 in 10.0 mi WNW 16.1 mph 20.7 mph N/A   Clear
2:55 PM 21.2 °F 8.9 °F -2.2 °F 36% 29.86 in 10.0 mi WNW 12.7 mph 19.6 mph N/A   Partly Cloudy
3:15 PM 21.2 °F 10.9 °F -2.2 °F 36% 29.87 in 10.0 mi West 9.2 mph 18.4 mph N/A   Partly Cloudy
3:35 PM 21.2 °F 7.8 °F -4.0 °F 33% 29.88 in 10.0 mi WNW 15.0 mph 20.7 mph N/A   Partly Cloudy
4:15 PM 19.4 °F 7.9 °F -5.8 °F 33% 29.89 in 10.0 mi WNW 10.4 mph 18.4 mph N/A   Clear
4:35 PM 19.4 °F 8.6 °F -5.8 °F 33% 29.90 in 10.0 mi WNW 9.2 mph 20.7 mph N/A   Clear
4:55 PM 17.6 °F 5.0 °F -5.8 °F 35% 29.92 in 10.0 mi WNW 11.5 mph 20.7 mph N/A   Clear
5:15 PM 17.6 °F 3.7 °F -5.8 °F 35% 29.93 in 10.0 mi West 13.8 mph 19.6 mph N/A   Clear
5:35 PM 17.6 °F 5.0 °F -5.8 °F 35% 29.94 in 10.0 mi WNW 11.5 mph 19.6 mph N/A   Clear
5:55 PM 17.6 °F 7.3 °F -5.8 °F 35% 29.96 in 10.0 mi WNW 8.1 mph 17.3 mph N/A   Clear
6:15 PM 15.8 °F 4.2 °F -5.8 °F 38% 29.97 in 10.0 mi WNW 9.2 mph 18.4 mph N/A   Clear
6:55 PM 15.8 °F 2.1 °F -5.8 °F 38% 29.99 in 10.0 mi WNW 12.7 mph - N/A   Clear
7:15 PM 15.8 °F 3.4 °F -5.8 °F 38% 29.99 in 10.0 mi WNW 10.4 mph - N/A   Clear
7:35 PM 15.8 °F 5.1 °F -5.8 °F 38% 30.00 in 10.0 mi WNW 8.1 mph - N/A   Clear
7:55 PM 14.0 °F 3.9 °F -5.8 °F 41% 30.00 in 10.0 mi WNW 6.9 mph - N/A   Clear
8:15 PM 14.0 °F 5.1 °F -5.8 °F 41% 30.00 in 10.0 mi WNW 5.8 mph - N/A   Clear
8:35 PM 14.0 °F 2.9 °F -5.8 °F 41% 30.01 in 10.0 mi WNW 8.1 mph - N/A   Clear
8:55 PM 14.0 °F 1.2 °F -5.8 °F 41% 30.01 in 10.0 mi WNW 10.4 mph - N/A   Clear
9:35 PM 12.2 °F -1.0 °F -4.0 °F 48% 30.02 in 10.0 mi WNW 10.4 mph - N/A   Clear
9:55 PM 12.2 °F 1.7 °F -2.2 °F 53% 30.03 in 10.0 mi West 6.9 mph - N/A   Clear
10:15 PM 12.2 °F -0.2 °F -2.2 °F 53% 30.04 in 10.0 mi WNW 9.2 mph - N/A   Clear
10:35 PM 12.2 °F -1.8 °F -2.2 °F 53% 30.04 in 10.0 mi West 11.5 mph - N/A   Clear
10:55 PM 12.2 °F -1.0 °F -2.2 °F 53% 30.04 in 10.0 mi West 10.4 mph - N/A   Clear
11:15 PM 12.2 °F -0.2 °F -2.2 °F 53% 30.04 in 10.0 mi West 9.2 mph - N/A   Clear
11:35 PM 12.2 °F -2.5 °F -0.4 °F 57% 30.04 in 10.0 mi WNW 12.7 mph 17.3 mph N/A   Clear